Location: Lugrin
(46.4033°N, 6.6674°E)
Time: 11:13:41
(UTC+00:00)

Cosmos 2098 Rocket - Pass Details

Date: 18 September 2020
Orbit: 366 x 1185 km, 82.9° (Epoch: 24 October)

Event Time Altitude Azimuth Distance (km) Brightness Sun altitude
Rises 20:51:59 0° 351° (N) 4,064 7.9 -31.3°
Reaches altitude 10° 20:54:48 10° 353° (N) 3,053 7.1 -31.6°
Enters shadow 21:01:10 69° 13° (NNE) 1,127 4.2 -32.4°
